Simultaneous Nadir Overpasses (SNOs) Predictions

Prediction of SNOs between NOAA-20 and METOP-B Satellite Orbit:

Table of predicted SNOs for the next 14.0 days since TLE Epoch: 1/4/2020
Index Date (NOAA-20) Time (NOAA-20) Lat,Lon (NOAA-20) SZA (NOAA-20 ) Date (METOP-B) Time (METOP-B) Lat,Lon (METOP-B) SZA (METOP-B ) Distance(km) Time Diff (sec)
1 01/04/2020 03:41:46 72.72, 116.33 95.61 01/04/2020 03:42:39 72.73, 116.26 95.61 2.57 53
2 01/04/2020 04:32:30 -72.72, -76.37 84.39 01/04/2020 04:33:21 -72.71, -76.44 84.41 2.60 51
3 01/04/2020 05:23:16 72.72, 90.95 95.61 01/04/2020 05:24:01 72.71, 90.88 95.59 2.66 45
4 01/04/2020 06:14:00 -72.73,-101.75 84.39 01/04/2020 06:14:42 -72.74,-101.71 84.38 2.33 42
5 01/04/2020 07:04:46 72.72, 65.57 95.60 01/04/2020 07:05:22 72.74, 65.61 95.61 2.26 36
6 01/04/2020 07:55:30 -72.73,-127.13 84.40 01/04/2020 07:56:04 -72.73,-127.09 84.41 1.26 34
7 01/04/2020 08:46:16 72.72, 40.19 95.60 01/04/2020 08:46:44 72.72, 40.23 95.59 1.25 28
8 01/04/2020 09:37:00 -72.73,-152.51 84.40 01/04/2020 09:37:26 -72.71,-152.47 84.43 2.99 26
9 01/04/2020 10:27:46 72.73, 14.81 95.60 01/04/2020 10:28:06 72.70, 14.85 95.56 3.10 20
10 01/04/2020 11:18:29 -72.68,-177.78 84.46 01/04/2020 11:18:48 -72.69,-177.85 84.46 2.28 19
11 01/04/2020 12:09:15 72.68, -10.46 95.54 01/04/2020 12:09:28 72.68, -10.53 95.54 2.32 13
12 01/04/2020 12:59:59 -72.69, 156.84 84.46 01/04/2020 13:00:10 -72.67, 156.77 84.48 2.87 11
13 01/04/2020 13:50:45 72.68, -35.84 95.53 01/04/2020 13:50:50 72.66, -35.91 95.52 3.05 5
14 01/04/2020 14:41:29 -72.69, 131.46 84.47 01/04/2020 14:41:31 -72.70, 131.50 84.46 1.91 2
15 01/04/2020 15:32:15 72.68, -61.22 95.53 01/04/2020 15:32:11 72.69, -61.19 95.54 1.71 4
16 01/04/2020 16:22:59 -72.69, 106.08 84.47 01/04/2020 16:22:53 -72.68, 106.12 84.48 1.59 6
17 01/04/2020 17:13:45 72.68, -86.60 95.52 01/04/2020 17:13:33 72.67, -86.57 95.51 1.69 12
18 01/04/2020 18:04:28 -72.64, 80.80 84.53 01/04/2020 18:04:15 -72.66, 80.74 84.51 3.15 13
19 01/04/2020 18:55:14 72.64,-111.88 95.46 01/04/2020 18:54:55 72.65,-111.94 95.49 3.05 19
20 01/04/2020 19:45:58 -72.64, 55.42 84.54 01/04/2020 19:45:37 -72.64, 55.36 84.53 2.13 21
21 01/04/2020 20:36:44 72.64,-137.26 95.46 01/04/2020 20:36:17 72.64,-137.32 95.46 2.26 27
22 01/04/2020 21:27:28 -72.65, 30.04 84.54 01/04/2020 21:26:59 -72.62, 29.98 84.55 3.21 29
23 01/04/2020 22:18:14 72.64,-162.64 95.45 01/04/2020 22:17:38 72.67,-162.60 95.49 3.16 36
24 01/04/2020 23:08:58 -72.65, 4.66 84.55 01/04/2020 23:08:20 -72.66, 4.71 84.53 1.60 38
25 01/04/2020 23:59:44 72.64, 171.98 95.45 01/04/2020 23:59:00 72.65, 172.02 95.46 1.35 44
26 01/05/2020 00:50:27 -72.65, -20.71 84.55 01/05/2020 00:49:41 -72.64, -20.67 84.56 2.07 46
27 01/05/2020 01:41:13 72.65, 146.60 95.45 01/05/2020 01:40:21 72.63, 146.64 95.44 2.30 52
28 01/05/2020 02:31:56 -72.60, -45.99 84.61 01/05/2020 02:31:03 -72.62, -46.05 84.58 2.66 53
29 01/05/2020 03:22:42 72.60, 121.33 95.39 01/05/2020 03:21:43 72.61, 121.26 95.41 2.54 59
30 01/05/2020 04:13:26 -72.61, -71.37 84.61 01/05/2020 04:12:25 -72.60, -71.43 84.61 2.11 61
31 01/05/2020 05:04:12 72.60, 95.95 95.38 01/05/2020 05:03:05 72.59, 95.88 95.39 2.40 67
32 01/05/2020 05:54:56 -72.61, -96.75 84.62 01/05/2020 05:53:46 -72.63, -96.71 84.58 3.00 70
33 01/05/2020 06:45:41 72.55, 70.67 95.32 01/05/2020 06:44:27 72.57, 70.51 95.36 5.98 74
34 01/05/2020 07:36:24 -72.51,-121.92 84.73 01/05/2020 07:35:10 -72.51,-122.29 84.70 12.26 74
35 01/05/2020 08:27:05 72.25, 45.90 94.99 01/05/2020 08:25:54 72.30, 44.62 95.11 43.86 71
36 01/05/2020 09:17:48 -72.21,-146.70 85.07 01/05/2020 09:16:37 -72.24,-148.17 84.95 50.16 71
37 01/05/2020 10:08:29 71.94, 21.12 94.65 01/05/2020 10:07:22 71.97, 18.65 94.81 85.01 67
38 01/05/2020 10:59:12 -71.90,-171.49 85.40 01/05/2020 10:58:05 -71.91,-174.13 85.25 91.29 67




NCC Satellite Simultaneous Nadir Overpasses (SNOs) Prediction Service
